Regional Weather Roundup
Issued by NWS Sioux Falls, SD

Home | Current Version | Previous Version | Text Only | Print | Product List | Glossary Off
Versions: 1 2 3 4 5 6 7 8 9 10 11 12 13 14 15 16 17 18 19 20 21 22 23 24 25 26 27 28 29 30 31 32 33 34 35 36 37 38 39 40 41 42 43 44 45 46 47 48 49 50

000
ASUS43 KFSD 241510
RWRFSD

WEATHER ROUNDUP FOR SE SOUTH DAKOTA/SW MINNESOTA/NW IOWA
NATIONAL WEATHER SERVICE SIOUX FALLS SD
1000 AM CDT SUN SEP 24 2017

NOTE: "FAIR" INDICATES FEW OR NO CLOUDS BELOW 12,000 FEET WITH NO
SIGNIFICANT WEATHER AND OR OBSTRUCTIONS TO VISIBILITY.


SDZ038>040-050-052>070-241600-
SOUTHEAST SOUTH DAKOTA

CITY           SKY/WX    TMP DP  RH WIND       PRES   REMARKS
BROOKINGS      LGT RAIN  68  64  87 S13       29.86F
CHAMBERLAIN    LGT RAIN  56  56 100 NW10      29.91R
HURON          LGT RAIN  56  56 100 W8        29.87S
MADISON        FAIR      66  66 100 S14       29.87S
MITCHELL       LGT RAIN  57  56  96 W9        29.88S
SIOUX FALLS    CLOUDY    76  67  73 S15       29.86F
WINNER         LGT RAIN  53  51  93 NW13G18   29.91S
YANKTON        CLOUDY    69  65  86 SW6       29.87R
$$

MNZ071-072-080-081-089-090-097-098-241600-
SOUTHWEST MINNESOTA

CITY           SKY/WX    TMP DP  RH WIND       PRES   REMARKS
FAIRMONT       SUNNY     77  67  71 S14       29.95S
JACKSON        SUNNY     75  64  69 S13G20    29.95S
LUVERNE        SUNNY     73  63  68 S14       29.90S
MARSHALL       MOSUNNY   73  66  78 S14       29.87S
MONTEVIDEO     MOSUNNY   70  66  88 S9        29.86S
PIPESTONE      MOSUNNY   73  64  73 S14       29.89S
REDWOOD FALLS  MOSUNNY   76  66  71 S14       29.89S
TRACY          MOSUNNY   73  67  79 S10G16    29.89F
WORTHINGTON    MOSUNNY   75  66  73 S12G20    29.93S
$$

IAZ001>003-012>014-020>022-031-032-NEZ013-014-SDZ071-241600-
NORTHWEST IOWA

CITY           SKY/WX    TMP DP  RH WIND       PRES   REMARKS
CHEROKEE       MOSUNNY   78  68  72 S13       29.92F
DENISON        SUNNY     77  66  69 S12G17    29.95S
ESTHERVILLE    SUNNY     74  67  78 S13       29.94F
LE MARS        MOSUNNY   77  66  69 S14       29.90S
ORANGE CITY    MOSUNNY   77  70  78 S15G23    29.91S
SHELDON        MOSUNNY   75  66  73 S14G20    29.90F
SIOUX CITY     MOSUNNY   75  67  76 S15G22    29.90S
SPENCER        SUNNY     78  65  63 S16       29.93F
STORM LAKE     SUNNY     77  66  69 S13       29.95S
$$

ABBREVIATIONS USED IN REMARKS
   TC - TEMPERATURE IN CELSIUS
  WCI - WIND CHILL INDEX
   HX - HEAT INDEX
  VSB - VISIBILITY





USA.gov is the U.S. government's official web portal to all federal, state and local government web resources and services.